Powrót do katalogu

COSMOS 2407

AktywnyNawigacjaPO
NORAD 28380·PAYLOAD·🇷🇺 Russia

Wystrzelony Jul 22, 2004 z Plesetsk Cosmodrome

Loading…

Następne Przeloty (najbliższe 24 godziny)

TLE

ŚwieżeSource: Space-Track

Epoka: Sep 14, 2026, 13:07 UTC

1 28380U 04028A   26257.54667625  .00000056  00000-0  41764-4 0  9995
2 28380  82.9648   8.6410 0039207   4.5214   6.5715 13.76340179112173

Śledź COSMOS 2407 w czasie rzeczywistym z AllMySat

Download on the App Store